Location: Chuathbaluk
(61.5726°N, 159.2454°W)
Time: 02:36:25
(UTC+00:00)

TIGRISAT - Pass Details

Date: 24 January 2021
Orbit: 605 x 688 km, 97.7° (Epoch: 05 March)

Event Time Altitude Azimuth Distance (km) Brightness Sun altitude
Rises 17:37:39 0° 179° (S) 2,875 ? -11.1°
Reaches altitude 10° 17:39:52 10° 185° (S) 1,983 ? -10.8°
Maximum altitude 17:44:03 49° 260° (W) 815 ? -10.4°
Drops below altitude 10° 17:48:22 10° 336° (NNW) 2,040 ? -9.9°
Enters shadow 17:50:28 - 342° (NNW) 2,887 ? -9.7°
